Weather History for Harvey, ND

Change the Weather History Date:

Monday, September 2, 2013

  Actual Average (KRUG) Record (KRUG)
Temperature  
Mean Temperature 60 °F -  
Max Temperature 78 °F 76 °F 96 °F (1955)
Min Temperature 41 °F 50 °F 32 °F (1952)
Degree Days  
Heating Degree Days 6    
Growing Degree Days 10 (Base 50)    
Moisture  
Dew Point 51 °F    
Average Humidity 75    
Maximum Humidity 100    
Minimum Humidity 42    
Precipitation  
Precipitation 0.00 in - - ()
Sea Level Pressure  
Sea Level Pressure 30.05 in    
Wind  
Wind Speed 6 mph (SE)    
Max Wind Speed 10 mph    
Max Gust Speed -    
Visibility 10 miles    
Events      
Averages and records for this station are not official NWS values.
T = Trace of Precipitation, MM = Missing Value Source: NWS Daily Summary

Daily Weather History Graph

Daily Weather History Graph

Search for Another Location

Airport:

Trip Planner

Search our weather history database for the weather conditions in past years. The results will help you decide how hot, cold, wet, or windy it might be!

Date:

Astronomy

Sep. 02, 2013 Rise Set
Actual Time 6:59 AM CDT 8:17 PM CDT
Civil Twilight 6:27 AM CDT 8:49 PM CDT
Nautical Twilight 5:49 AM CDT 9:28 PM CDT
Astronomical Twilight 5:07 AM CDT 10:09 PM CDT
Moon 4:10 AM CDT (9/2) 6:37 PM CDT (9/2)
Length of Visible Light 14h 21m
Length of Day
13h 18m
Waning Crescent, 8% of the Moon is Illuminated
Sep 2
Waning Crescent
Sep 5
New
Sep 12
First Quarter
Sep 19
Full
Sep 26
Last Quarter

Hourly Weather History & Observations

Time (CDT) Temp. Windchill Dew Point Humidity Pressure Visibility Wind Dir Wind Speed Gust Speed Precip Events Conditions
12:15 AM 50.0 °F - 48.2 °F 94% 30.09 in 10.0 mi East 6.9 mph - N/A   Clear
12:35 AM 50.0 °F - 48.2 °F 94% 30.09 in 10.0 mi ESE 6.9 mph - N/A   Clear
12:55 AM 50.0 °F - 48.2 °F 94% 30.09 in 10.0 mi ESE 5.8 mph - N/A   Clear
1:15 AM 50.0 °F - 48.2 °F 94% 30.09 in 10.0 mi SE 5.8 mph - N/A   Clear
1:35 AM 50.0 °F - 48.2 °F 94% 30.10 in 10.0 mi SE 4.6 mph - N/A   Clear
1:55 AM 48.2 °F - 48.2 °F 100% 30.10 in 10.0 mi SE 4.6 mph - N/A   Clear
2:15 AM 48.2 °F - 48.2 °F 100% 30.10 in 10.0 mi SE 4.6 mph - N/A   Clear
2:35 AM 50.0 °F - 48.2 °F 94% 30.10 in 10.0 mi SE 3.5 mph - N/A   Clear
2:55 AM 48.2 °F - 48.2 °F 100% 30.10 in 10.0 mi SE 4.6 mph - N/A   Clear
3:15 AM 48.2 °F - 46.4 °F 93% 30.10 in 10.0 mi SSE 4.6 mph - N/A   Clear
3:35 AM 48.2 °F - 46.4 °F 93% 30.11 in 10.0 mi Calm Calm - N/A   Clear
3:55 AM 48.2 °F - 46.4 °F 93% 30.11 in 10.0 mi Calm Calm - N/A   Clear
4:15 AM 46.4 °F 45.2 °F 46.4 °F 100% 30.12 in 10.0 mi SSE 3.5 mph - N/A   Clear
4:35 AM 44.6 °F 43.1 °F 44.6 °F 100% 30.11 in 10.0 mi SE 3.5 mph - N/A   Clear
4:55 AM 44.6 °F 43.1 °F 44.6 °F 100% 30.11 in 10.0 mi SE 3.5 mph - N/A   Clear
5:15 AM 44.6 °F - 44.6 °F 100% 30.12 in 10.0 mi Calm Calm - N/A   Clear
5:35 AM 44.6 °F - 44.6 °F 100% 30.11 in 10.0 mi Calm Calm - N/A   Clear
5:55 AM 42.8 °F 41.1 °F 42.8 °F 100% 30.11 in 10.0 mi SSE 3.5 mph - N/A   Clear
6:15 AM 44.6 °F 42.2 °F 44.6 °F 100% 30.11 in 10.0 mi SSE 4.6 mph - N/A   Clear
6:35 AM 41.0 °F 39.0 °F 41.0 °F 100% 30.12 in 10.0 mi SE 3.5 mph - N/A   Clear
6:55 AM 41.0 °F 39.0 °F 41.0 °F 100% 30.12 in 10.0 mi SE 3.5 mph - N/A   Clear
7:15 AM 42.8 °F 40.1 °F 42.8 °F 100% 30.12 in 10.0 mi SE 4.6 mph - N/A   Clear
7:35 AM 44.6 °F 42.2 °F 44.6 °F 100% 30.12 in 10.0 mi SE 4.6 mph - N/A   Clear
7:55 AM 46.4 °F 44.3 °F 46.4 °F 100% 30.12 in 10.0 mi SE 4.6 mph - N/A   Clear
8:15 AM 48.2 °F - 48.2 °F 100% 30.12 in 10.0 mi ESE 4.6 mph - N/A   Clear
8:35 AM 50.0 °F - 50.0 °F 100% 30.12 in 10.0 mi ESE 3.5 mph - N/A   Clear
8:55 AM 53.6 °F - 53.6 °F 100% 30.12 in 10.0 mi SE 5.8 mph - N/A   Clear
9:15 AM 55.4 °F - 53.6 °F 94% 30.11 in 10.0 mi SSE 4.6 mph - N/A   Clear
9:35 AM 59.0 °F - 51.8 °F 77% 30.11 in 10.0 mi SSE 5.8 mph - N/A   Clear
9:55 AM 60.8 °F - 53.6 °F 77% 30.10 in 10.0 mi SSE 9.2 mph - N/A   Clear
10:15 AM 62.6 °F - 53.6 °F 72% 30.10 in 10.0 mi SSE 8.1 mph - N/A   Clear
10:35 AM 64.4 °F - 53.6 °F 68% 30.10 in 10.0 mi South 9.2 mph - N/A   Clear
10:55 AM 64.4 °F - 51.8 °F 64% 30.09 in 10.0 mi South 6.9 mph - N/A   Clear
11:15 AM 66.2 °F - 51.8 °F 60% 30.09 in 10.0 mi SE 8.1 mph - N/A   Clear
11:35 AM 68.0 °F - 50.0 °F 52% 30.09 in 10.0 mi SE 8.1 mph - N/A   Clear
11:55 AM 69.8 °F - 50.0 °F 49% 30.08 in 10.0 mi SE 8.1 mph - N/A   Clear
12:15 PM 71.6 °F - 50.0 °F 46% 30.08 in 10.0 mi SSE 8.1 mph - N/A   Clear
12:35 PM 71.6 °F - 50.0 °F 46% 30.07 in 10.0 mi South 8.1 mph - N/A   Clear
12:55 PM 71.6 °F - 50.0 °F 46% 30.07 in 10.0 mi South 10.4 mph - N/A   Clear
1:15 PM 73.4 °F - 50.0 °F 44% 30.06 in 10.0 mi SSE 5.8 mph - N/A   Clear
1:35 PM 73.4 °F - 50.0 °F 44% 30.05 in 10.0 mi SSE 8.1 mph - N/A   Clear
1:55 PM 75.2 °F - 51.8 °F 44% 30.05 in 10.0 mi ESE 8.1 mph - N/A   Clear
2:15 PM 75.2 °F - 51.8 °F 44% 30.04 in 10.0 mi SSE 10.4 mph - N/A   Clear
2:35 PM 75.2 °F - 53.6 °F 47% 30.04 in 10.0 mi South 6.9 mph - N/A   Clear
2:55 PM 75.2 °F - 53.6 °F 47% 30.03 in 10.0 mi South 8.1 mph - N/A   Clear
3:15 PM 77.0 °F - 53.6 °F 44% 30.02 in 10.0 mi ESE 6.9 mph - N/A   Clear
3:35 PM 77.0 °F - 53.6 °F 44% 30.02 in 10.0 mi SSE 4.6 mph - N/A   Clear
3:55 PM 77.0 °F - 53.6 °F 44% 30.01 in 10.0 mi SSE 9.2 mph - N/A   Clear
4:15 PM 77.0 °F - 53.6 °F 44% 30.01 in 10.0 mi South 5.8 mph - N/A   Clear
4:35 PM 77.0 °F - 53.6 °F 44% 30.00 in 10.0 mi SE 6.9 mph - N/A   Clear
4:55 PM 78.8 °F - 53.6 °F 42% 29.99 in 10.0 mi South 6.9 mph - N/A   Clear
5:15 PM 77.0 °F - 55.4 °F 47% 29.99 in 10.0 mi SSE 9.2 mph - N/A   Clear
5:35 PM 78.8 °F - 53.6 °F 42% 29.98 in 10.0 mi South 5.8 mph - N/A   Clear
5:55 PM 78.8 °F - 55.4 °F 44% 29.98 in 10.0 mi SSE 6.9 mph - N/A   Clear
6:15 PM 77.0 °F - 55.4 °F 47% 29.98 in 10.0 mi SSE 8.1 mph - N/A   Clear
6:35 PM 77.0 °F - 55.4 °F 47% 29.98 in 10.0 mi SSE 5.8 mph - N/A   Clear
6:55 PM 77.0 °F - 55.4 °F 47% 29.98 in 10.0 mi SSE 6.9 mph - N/A   Clear
7:15 PM 75.2 °F - 57.2 °F 53% 29.97 in 10.0 mi ESE 5.8 mph - N/A   Clear
7:35 PM 73.4 °F - 57.2 °F 57% 29.97 in 10.0 mi SE 6.9 mph - N/A   Clear
7:55 PM 71.6 °F - 57.2 °F 60% 29.96 in 10.0 mi SE 6.9 mph - N/A   Clear
8:15 PM 69.8 °F - 57.2 °F 64% 29.96 in 10.0 mi SE 5.8 mph - N/A   Clear
8:35 PM 68.0 °F - 57.2 °F 68% 29.96 in 10.0 mi SE 6.9 mph - N/A   Clear
8:55 PM 64.4 °F - 57.2 °F 77% 29.97 in 10.0 mi ESE 6.9 mph - N/A   Clear
9:15 PM 62.6 °F - 57.2 °F 82% 29.97 in 10.0 mi ESE 6.9 mph - N/A   Clear
9:35 PM 59.0 °F - 57.2 °F 94% 29.97 in 10.0 mi ESE 6.9 mph - N/A   Clear
9:55 PM 59.0 °F - 57.2 °F 94% 29.97 in 10.0 mi ESE 5.8 mph - N/A   Clear
10:15 PM 59.0 °F - 57.2 °F 94% 29.98 in 10.0 mi ESE 5.8 mph - N/A   Clear
10:35 PM 59.0 °F - 57.2 °F 94% 29.98 in 10.0 mi SE 5.8 mph - N/A   Clear
10:55 PM 59.0 °F - 55.4 °F 88% 29.98 in 10.0 mi SE 5.8 mph - N/A   Clear
11:15 PM 59.0 °F - 55.4 °F 88% 29.98 in 10.0 mi SE 5.8 mph - N/A   Clear
11:35 PM 59.0 °F - 55.4 °F 88% 29.97 in 7.0 mi SE 6.9 mph - N/A   Clear
11:55 PM 57.2 °F - 55.4 °F 94% 29.97 in 10.0 mi SE 3.5 mph - N/A   Clear